Time,TemperatureF,DewpointF,PressureIn,WindDirection,WindDirectionDegrees,WindSpeedMPH,WindSpeedGustMPH,Humidity,HourlyPrecipIn,Conditions,Clouds,dailyrainin,SoftwareType,DateUTC
2013-03-27 00:00:00,34.9,30.5,30.09,NW,311,2.0,10.0,84,0.00,,,0.00,WUHU216DAVISVP2,2013-03-27 04:00:00,
2013-03-27 00:01:00,34.9,30.5,30.09,NW,325,5.0,10.0,84,0.00,,,0.00,WUHU216DAVISVP2,2013-03-27 04:01:00,
2013-03-27 00:06:00,34.8,30.7,30.09,WNW,301,7.0,8.0,85,0.00,,,0.00,WUHU216DAVISVP2,2013-03-27 04:06:00,
2013-03-27 00:11:00,34.8,30.7,30.09,NW,312,10.0,10.0,85,0.00,,,0.00,WUHU216DAVISVP2,2013-03-27 04:11:00,
2013-03-27 00:16:00,34.8,30.7,30.09,NW,319,5.0,10.0,85,0.00,,,0.00,WUHU216DAVISVP2,2013-03-27 04:16:00,
2013-03-27 00:21:00,34.8,30.7,30.09,NW,313,3.0,10.0,85,0.00,,,0.00,WUHU216DAVISVP2,2013-03-27 04:21:00,
2013-03-27 00:26:00,34.8,30.7,30.10,NW,312,7.0,8.0,85,0.00,,,0.00,WUHU216DAVISVP2,2013-03-27 04:26:00,
2013-03-27 00:31:00,34.8,30.7,30.10,NW,312,7.0,8.0,85,0.00,,,0.00,WUHU216DAVISVP2,2013-03-27 04:31:00,
2013-03-27 00:36:00,34.7,30.9,30.09,WNW,293,6.0,9.0,86,0.00,,,0.00,WUHU216DAVISVP2,2013-03-27 04:36:00,
2013-03-27 00:41:00,34.7,30.9,30.10,NW,312,7.0,10.0,86,0.00,,,0.00,WUHU216DAVISVP2,2013-03-27 04:41:00,
2013-03-27 00:45:00,34.6,30.8,30.10,NNW,342,5.0,10.0,86,0.00,,,0.00,WUHU216DAVISVP2,2013-03-27 04:45:00,
2013-03-27 00:47:00,34.6,30.8,30.10,NNW,342,5.0,10.0,86,0.00,,,0.00,WUHU216DAVISVP2,2013-03-27 04:47:00,
2013-03-27 00:52:00,34.6,30.8,30.10,NW,325,4.0,10.0,86,0.00,,,0.00,WUHU216DAVISVP2,2013-03-27 04:52:00,
2013-03-27 00:57:00,34.6,30.8,30.10,NW,313,6.0,10.0,86,0.00,,,0.00,WUHU216DAVISVP2,2013-03-27 04:57:00,
2013-03-27 01:02:00,34.6,30.8,30.10,NNW,339,4.0,10.0,86,0.00,,,0.00,WUHU216DAVISVP2,2013-03-27 05:02:00,
2013-03-27 01:07:00,34.6,30.8,30.09,NW,308,4.0,10.0,86,0.00,,,0.00,WUHU216DAVISVP2,2013-03-27 05:07:00,
2013-03-27 01:12:00,34.6,30.8,30.10,NNW,330,5.0,9.0,86,0.00,,,0.00,WUHU216DAVISVP2,2013-03-27 05:12:00,
2013-03-27 01:17:00,34.6,30.8,30.10,NW,320,4.0,9.0,86,0.00,,,0.00,WUHU216DAVISVP2,2013-03-27 05:17:00,
2013-03-27 01:22:00,34.5,32.4,30.10,NW,306,3.0,7.0,92,0.00,,,0.00,WUHU216DAVISVP2,2013-03-27 05:22:00,
2013-03-27 01:27:00,34.5,30.7,30.10,WNW,298,5.0,10.0,86,0.00,,,0.00,WUHU216DAVISVP2,2013-03-27 05:27:00,
2013-03-27 01:32:00,34.5,30.7,30.10,WNW,303,5.0,10.0,86,0.00,,,0.00,WUHU216DAVISVP2,2013-03-27 05:32:00,
2013-03-27 01:37:00,34.5,30.7,30.10,NW,324,4.0,10.0,86,0.00,,,0.00,WUHU216DAVISVP2,2013-03-27 05:37:00,
2013-03-27 01:43:00,34.5,30.7,30.10,NW,310,4.0,10.0,86,0.00,,,0.00,WUHU216DAVISVP2,2013-03-27 05:43:00,
2013-03-27 01:46:00,34.5,30.7,30.10,NW,310,10.0,10.0,86,0.00,,,0.00,WUHU216DAVISVP2,2013-03-27 05:46:00,
2013-03-27 01:48:00,34.5,30.7,30.10,NW,310,10.0,10.0,86,0.00,,,0.00,WUHU216DAVISVP2,2013-03-27 05:48:00,
2013-03-27 01:53:00,34.5,30.7,30.10,NW,310,10.0,10.0,86,0.00,,,0.00,WUHU216DAVISVP2,2013-03-27 05:53:00,
2013-03-27 01:58:00,34.5,30.7,30.10,NW,320,4.0,11.0,86,0.00,,,0.00,WUHU216DAVISVP2,2013-03-27 05:58:00,
2013-03-27 02:03:00,34.5,30.7,30.10,WNW,284,5.0,8.0,86,0.00,,,0.00,WUHU216DAVISVP2,2013-03-27 06:03:00,
2013-03-27 02:08:00,34.5,30.4,30.10,NW,313,5.0,8.0,85,0.00,,,0.00,WUHU216DAVISVP2,2013-03-27 06:08:00,
2013-03-27 02:13:00,34.5,30.4,30.10,WNW,284,4.0,11.0,85,0.00,,,0.00,WUHU216DAVISVP2,2013-03-27 06:13:00,
2013-03-27 02:18:00,34.5,30.4,30.10,NW,306,5.0,11.0,85,0.00,,,0.00,WUHU216DAVISVP2,2013-03-27 06:18:00,
2013-03-27 02:23:00,34.5,30.4,30.10,NW,325,2.0,11.0,85,0.00,,,0.00,WUHU216DAVISVP2,2013-03-27 06:23:00,
2013-03-27 02:28:00,34.4,30.3,30.10,North,355,7.0,11.0,85,0.00,,,0.00,WUHU216DAVISVP2,2013-03-27 06:28:00,
2013-03-27 02:33:00,34.3,30.2,30.10,NNW,331,4.0,11.0,85,0.00,,,0.00,WUHU216DAVISVP2,2013-03-27 06:33:00,
2013-03-27 02:39:00,34.4,30.3,30.10,North,355,6.0,11.0,85,0.00,,,0.00,WUHU216DAVISVP2,2013-03-27 06:39:00,
2013-03-27 02:43:00,34.4,30.3,30.10,West,275,5.0,11.0,85,0.00,,,0.00,WUHU216DAVISVP2,2013-03-27 06:43:00,
2013-03-27 02:49:00,34.3,30.2,30.10,NNW,340,6.0,9.0,85,0.00,,,0.00,WUHU216DAVISVP2,2013-03-27 06:49:00,
2013-03-27 02:54:00,34.3,30.2,30.10,West,281,10.0,11.0,85,0.00,,,0.00,WUHU216DAVISVP2,2013-03-27 06:54:00,
2013-03-27 02:59:00,34.3,30.0,30.10,NW,325,4.0,11.0,84,0.00,,,0.00,WUHU216DAVISVP2,2013-03-27 06:59:00,
2013-03-27 03:04:00,34.3,30.0,30.10,NW,304,5.0,9.0,84,0.00,,,0.00,WUHU216DAVISVP2,2013-03-27 07:04:00,
2013-03-27 03:09:00,34.1,29.8,30.10,NW,306,6.0,9.0,84,0.00,,,0.00,WUHU216DAVISVP2,2013-03-27 07:09:00,
2013-03-27 03:14:00,34.1,29.8,30.10,NNW,332,5.0,9.0,84,0.00,,,0.00,WUHU216DAVISVP2,2013-03-27 07:14:00,
2013-03-27 03:19:00,34.1,29.8,30.10,North,350,7.0,10.0,84,0.00,,,0.00,WUHU216DAVISVP2,2013-03-27 07:19:00,
2013-03-27 03:24:00,34.0,29.7,30.10,NNW,340,8.0,10.0,84,0.00,,,0.00,WUHU216DAVISVP2,2013-03-27 07:24:00,
2013-03-27 03:30:00,34.1,29.8,30.10,NNW,338,7.0,11.0,84,0.00,,,0.00,WUHU216DAVISVP2,2013-03-27 07:30:00,
2013-03-27 03:35:00,34.0,29.7,30.10,NW,313,5.0,11.0,84,0.00,,,0.00,WUHU216DAVISVP2,2013-03-27 07:35:00,
2013-03-27 03:40:00,33.9,29.6,30.10,NNW,348,6.0,11.0,84,0.00,,,0.00,WUHU216DAVISVP2,2013-03-27 07:40:00,
2013-03-27 03:45:00,33.8,29.2,30.10,NW,318,7.0,12.0,83,0.00,,,0.00,WUHU216DAVISVP2,2013-03-27 07:45:00,
2013-03-27 03:50:00,33.7,29.1,30.10,NW,312,3.0,12.0,83,0.00,,,0.00,WUHU216DAVISVP2,2013-03-27 07:50:00,
2013-03-27 03:55:00,33.7,29.1,30.10,NNW,337,6.0,11.0,83,0.00,,,0.00,WUHU216DAVISVP2,2013-03-27 07:55:00,
2013-03-27 04:00:00,33.5,28.9,30.10,NNW,327,4.0,10.0,83,0.00,,,0.00,WUHU216DAVISVP2,2013-03-27 08:00:00,
2013-03-27 04:05:00,33.4,28.8,30.10,NNW,334,5.0,9.0,83,0.00,,,0.00,WUHU216DAVISVP2,2013-03-27 08:05:00,
2013-03-27 04:10:00,33.3,28.7,30.10,NNW,329,6.0,9.0,83,0.00,,,0.00,WUHU216DAVISVP2,2013-03-27 08:10:00,
2013-03-27 04:15:00,33.1,28.5,30.10,NNW,333,6.0,9.0,83,0.00,,,0.00,WUHU216DAVISVP2,2013-03-27 08:15:00,
2013-03-27 04:20:00,32.9,28.6,30.10,NNW,331,3.0,10.0,84,0.00,,,0.00,WUHU216DAVISVP2,2013-03-27 08:20:00,
2013-03-27 04:26:00,32.8,28.2,30.10,NW,319,4.0,10.0,83,0.00,,,0.00,WUHU216DAVISVP2,2013-03-27 08:26:00,
2013-03-27 04:31:00,32.6,28.3,30.10,WNW,299,7.0,12.0,84,0.00,,,0.00,WUHU216DAVISVP2,2013-03-27 08:31:00,
2013-03-27 04:36:00,32.6,28.0,30.10,NNW,337,8.0,12.0,83,0.00,,,0.00,WUHU216DAVISVP2,2013-03-27 08:36:00,
2013-03-27 04:42:00,32.5,27.9,30.10,NNW,341,8.0,12.0,83,0.00,,,0.00,WUHU216DAVISVP2,2013-03-27 08:42:00,
2013-03-27 04:47:00,32.5,27.9,30.10,NW,314,4.0,12.0,83,0.00,,,0.00,WUHU216DAVISVP2,2013-03-27 08:47:00,
2013-03-27 04:52:00,32.5,27.9,30.10,NW,310,9.0,11.0,83,0.00,,,0.00,WUHU216DAVISVP2,2013-03-27 08:52:00,
2013-03-27 04:57:00,32.5,27.9,30.10,NW,321,8.0,15.0,83,0.00,,,0.00,WUHU216DAVISVP2,2013-03-27 08:57:00,
2013-03-27 05:02:00,32.3,27.7,30.10,NNW,347,9.0,15.0,83,0.00,,,0.00,WUHU216DAVISVP2,2013-03-27 09:02:00,
2013-03-27 05:07:00,32.4,28.1,30.10,NNW,340,7.0,10.0,84,0.00,,,0.00,WUHU216DAVISVP2,2013-03-27 09:07:00,
2013-03-27 05:12:00,32.2,27.9,30.10,NW,321,4.0,10.0,84,0.00,,,0.00,WUHU216DAVISVP2,2013-03-27 09:12:00,
2013-03-27 05:17:00,32.1,27.8,30.10,NW,312,7.0,10.0,84,0.00,,,0.00,WUHU216DAVISVP2,2013-03-27 09:17:00,
2013-03-27 05:22:00,32.1,27.8,30.10,NW,312,4.0,10.0,84,0.00,,,0.00,WUHU216DAVISVP2,2013-03-27 09:22:00,
2013-03-27 05:26:00,32.0,27.7,30.11,NW,324,6.0,8.0,84,0.00,,,0.00,WUHU216DAVISVP2,2013-03-27 09:26:00,
2013-03-27 05:27:00,32.0,27.7,30.10,WNW,298,7.0,10.0,84,0.00,,,0.00,WUHU216DAVISVP2,2013-03-27 09:27:00,
2013-03-27 05:32:00,31.9,27.6,30.11,NW,315,6.0,10.0,84,0.00,,,0.00,WUHU216DAVISVP2,2013-03-27 09:32:00,
2013-03-27 05:37:00,32.0,28.0,30.11,NNW,329,1.0,10.0,85,0.00,,,0.00,WUHU216DAVISVP2,2013-03-27 09:37:00,
2013-03-27 05:38:00,32.0,28.0,30.11,NNW,329,1.0,10.0,85,0.00,,,0.00,WUHU216DAVISVP2,2013-03-27 09:38:00,
2013-03-27 05:43:00,31.9,27.6,30.11,NW,312,7.0,8.0,84,0.00,,,0.00,WUHU216DAVISVP2,2013-03-27 09:43:00,
2013-03-27 05:48:00,31.9,27.6,30.11,West,281,7.0,8.0,84,0.00,,,0.00,WUHU216DAVISVP2,2013-03-27 09:48:00,
2013-03-27 05:53:00,32.0,27.7,30.11,WNW,295,4.0,9.0,84,0.00,,,0.00,WUHU216DAVISVP2,2013-03-27 09:53:00,
2013-03-27 05:58:00,32.0,27.7,30.11,WNW,302,7.0,9.0,84,0.00,,,0.00,WUHU216DAVISVP2,2013-03-27 09:58:00,
2013-03-27 06:03:00,32.0,27.7,30.11,NW,324,7.0,9.0,84,0.00,,,0.00,WUHU216DAVISVP2,2013-03-27 10:03:00,
2013-03-27 06:08:00,32.0,27.7,30.11,NW,313,4.0,9.0,84,0.00,,,0.00,WUHU216DAVISVP2,2013-03-27 10:08:00,
2013-03-27 06:13:00,31.9,27.6,30.12,WNW,290,5.0,9.0,84,0.00,,,0.00,WUHU216DAVISVP2,2013-03-27 10:13:00,
2013-03-27 06:18:00,31.9,27.6,30.11,WNW,292,4.0,8.0,84,0.00,,,0.00,WUHU216DAVISVP2,2013-03-27 10:18:00,
2013-03-27 06:23:00,31.9,27.6,30.12,WNW,296,5.0,10.0,84,0.00,,,0.00,WUHU216DAVISVP2,2013-03-27 10:23:00,
2013-03-27 06:28:00,31.8,27.5,30.12,WNW,302,4.0,10.0,84,0.00,,,0.00,WUHU216DAVISVP2,2013-03-27 10:28:00,
2013-03-27 06:34:00,31.6,27.6,30.12,WNW,296,5.0,7.0,85,0.00,,,0.00,WUHU216DAVISVP2,2013-03-27 10:34:00,
2013-03-27 06:39:00,31.7,27.7,30.12,WNW,298,2.0,8.0,85,0.00,,,0.00,WUHU216DAVISVP2,2013-03-27 10:39:00,
2013-03-27 06:44:00,31.5,27.5,30.12,WNW,289,4.0,7.0,85,0.00,,,0.00,WUHU216DAVISVP2,2013-03-27 10:44:00,
2013-03-27 06:49:00,31.5,27.5,30.12,WNW,290,5.0,8.0,85,0.00,,,0.00,WUHU216DAVISVP2,2013-03-27 10:49:00,
2013-03-27 06:54:00,31.5,27.5,30.12,NW,311,5.0,8.0,85,0.00,,,0.00,WUHU216DAVISVP2,2013-03-27 10:54:00,
2013-03-27 06:59:00,31.5,27.2,30.12,NW,304,4.0,8.0,84,0.00,,,0.00,WUHU216DAVISVP2,2013-03-27 10:59:00,
2013-03-27 07:04:00,31.5,27.2,30.12,WNW,284,5.0,9.0,84,0.00,,,0.00,WUHU216DAVISVP2,2013-03-27 11:04:00,
2013-03-27 07:10:00,31.3,27.0,30.13,WNW,302,4.0,9.0,84,0.00,,,0.00,WUHU216DAVISVP2,2013-03-27 11:10:00,
2013-03-27 07:15:00,31.2,26.9,30.13,WNW,298,4.0,7.0,84,0.00,,,0.00,WUHU216DAVISVP2,2013-03-27 11:15:00,
2013-03-27 07:20:00,31.0,26.7,30.13,West,268,2.0,6.0,84,0.00,,,0.00,WUHU216DAVISVP2,2013-03-27 11:20:00,
2013-03-27 07:25:00,30.8,26.8,30.13,West,274,4.0,6.0,85,0.00,,,0.00,WUHU216DAVISVP2,2013-03-27 11:25:00,
2013-03-27 07:30:00,30.7,26.7,30.13,West,280,1.0,6.0,85,0.00,,,0.00,WUHU216DAVISVP2,2013-03-27 11:30:00,
2013-03-27 07:35:00,30.5,26.5,30.13,West,269,4.0,6.0,85,0.00,,,0.00,WUHU216DAVISVP2,2013-03-27 11:35:00,
2013-03-27 07:40:00,30.5,26.8,30.13,West,281,3.0,7.0,86,0.00,,,0.00,WUHU216DAVISVP2,2013-03-27 11:40:00,
2013-03-27 07:45:00,30.5,26.8,30.14,WNW,286,2.0,7.0,86,0.00,,,0.00,WUHU216DAVISVP2,2013-03-27 11:45:00,
2013-03-27 07:50:00,30.5,26.8,30.14,West,279,5.0,7.0,86,0.00,,,0.00,WUHU216DAVISVP2,2013-03-27 11:50:00,
2013-03-27 07:55:00,30.6,26.9,30.14,West,281,5.0,7.0,86,0.00,,,0.00,WUHU216DAVISVP2,2013-03-27 11:55:00,
2013-03-27 08:00:00,30.6,26.9,30.14,WNW,302,6.0,7.0,86,0.00,,,0.00,WUHU216DAVISVP2,2013-03-27 12:00:00,
2013-03-27 08:05:00,30.8,27.1,30.14,WNW,302,2.0,7.0,86,0.00,,,0.00,WUHU216DAVISVP2,2013-03-27 12:05:00,
2013-03-27 08:10:00,31.0,27.0,30.14,NW,311,5.0,7.0,85,0.00,,,0.00,WUHU216DAVISVP2,2013-03-27 12:10:00,
2013-03-27 08:15:00,31.3,27.0,30.14,WNW,300,5.0,9.0,84,0.00,,,0.00,WUHU216DAVISVP2,2013-03-27 12:15:00,
2013-03-27 08:21:00,31.6,27.0,30.14,NW,310,7.0,9.0,83,0.00,,,0.00,WUHU216DAVISVP2,2013-03-27 12:21:00,
2013-03-27 08:26:00,32.0,27.1,30.14,West,281,6.0,8.0,82,0.00,,,0.00,WUHU216DAVISVP2,2013-03-27 12:26:00,
2013-03-27 08:31:00,32.2,27.0,30.14,NW,320,4.0,10.0,81,0.00,,,0.00,WUHU216DAVISVP2,2013-03-27 12:31:00,
2013-03-27 08:36:00,32.4,26.9,30.14,WNW,293,8.0,12.0,80,0.00,,,0.00,WUHU216DAVISVP2,2013-03-27 12:36:00,
2013-03-27 08:41:00,32.7,27.2,30.15,WNW,292,6.0,12.0,80,0.00,,,0.00,WUHU216DAVISVP2,2013-03-27 12:41:00,
2013-03-27 08:46:00,33.0,27.2,30.15,NW,325,5.0,9.0,79,0.00,,,0.00,WUHU216DAVISVP2,2013-03-27 12:46:00,
2013-03-27 08:51:00,33.0,27.2,30.15,NW,325,5.0,9.0,79,0.00,,,0.00,WUHU216DAVISVP2,2013-03-27 12:51:00,
2013-03-27 08:56:00,33.6,27.2,30.15,NW,319,5.0,12.0,77,0.00,,,0.00,WUHU216DAVISVP2,2013-03-27 12:56:00,
2013-03-27 09:01:00,33.9,27.2,30.15,NNW,337,7.0,12.0,76,0.00,,,0.00,WUHU216DAVISVP2,2013-03-27 13:01:00,
2013-03-27 09:06:00,34.0,27.0,30.15,NW,315,10.0,14.0,75,0.00,,,0.00,WUHU216DAVISVP2,2013-03-27 13:06:00,
2013-03-27 09:12:00,34.2,27.1,30.15,NW,315,10.0,14.0,75,0.00,,,0.00,WUHU216DAVISVP2,2013-03-27 13:12:00,
2013-03-27 09:17:00,34.6,27.2,30.15,NW,322,7.0,15.0,74,0.00,,,0.00,WUHU216DAVISVP2,2013-03-27 13:17:00,
2013-03-27 09:22:00,35.0,27.2,30.16,West,266,5.0,13.0,73,0.00,,,0.00,WUHU216DAVISVP2,2013-03-27 13:22:00,
2013-03-27 09:27:00,35.1,27.0,30.16,NNW,343,11.0,15.0,72,0.00,,,0.00,WUHU216DAVISVP2,2013-03-27 13:27:00,
2013-03-27 09:32:00,35.5,27.1,30.16,NW,319,15.0,20.0,71,0.00,,,0.00,WUHU216DAVISVP2,2013-03-27 13:32:00,
2013-03-27 09:37:00,35.6,26.8,30.16,NW,310,5.0,20.0,70,0.00,,,0.00,WUHU216DAVISVP2,2013-03-27 13:37:00,
2013-03-27 09:43:00,36.0,27.2,30.16,NNW,333,12.0,14.0,70,0.00,,,0.00,WUHU216DAVISVP2,2013-03-27 13:43:00,
2013-03-27 09:48:00,35.9,26.8,30.15,NNW,330,4.0,15.0,69,0.00,,,0.00,WUHU216DAVISVP2,2013-03-27 13:48:00,
2013-03-27 09:53:00,36.2,27.1,30.16,NW,311,6.0,15.0,69,0.00,,,0.00,WUHU216DAVISVP2,2013-03-27 13:53:00,
2013-03-27 09:58:00,36.4,26.9,30.16,NW,309,7.0,19.0,68,0.00,,,0.00,WUHU216DAVISVP2,2013-03-27 13:58:00,
2013-03-27 10:03:00,36.5,26.7,30.15,NNW,327,11.0,19.0,67,0.00,,,0.00,WUHU216DAVISVP2,2013-03-27 14:03:00,
2013-03-27 10:08:00,37.0,26.8,30.15,WNW,302,8.0,18.0,66,0.00,,,0.00,WUHU216DAVISVP2,2013-03-27 14:08:00,
2013-03-27 10:13:00,37.2,26.6,30.15,NNW,327,6.0,18.0,65,0.00,,,0.00,WUHU216DAVISVP2,2013-03-27 14:13:00,
2013-03-27 10:18:00,37.6,26.6,30.15,NNW,327,6.0,16.0,64,0.00,,,0.00,WUHU216DAVISVP2,2013-03-27 14:18:00,
2013-03-27 10:23:00,38.0,27.4,30.15,NNE,13,4.0,16.0,65,0.00,,,0.00,WUHU216DAVISVP2,2013-03-27 14:23:00,
2013-03-27 10:28:00,38.1,26.3,30.16,NW,316,9.0,19.0,62,0.00,,,0.00,WUHU216DAVISVP2,2013-03-27 14:28:00,
2013-03-27 10:34:00,38.2,26.8,30.16,NNW,331,7.0,19.0,63,0.00,,,0.00,WUHU216DAVISVP2,2013-03-27 14:34:00,
2013-03-27 10:39:00,38.6,26.8,30.16,NNW,327,11.0,15.0,62,0.00,,,0.00,WUHU216DAVISVP2,2013-03-27 14:39:00,
2013-03-27 10:44:00,38.9,27.1,30.15,NNW,328,7.0,15.0,62,0.00,,,0.00,WUHU216DAVISVP2,2013-03-27 14:44:00,
2013-03-27 10:49:00,39.2,26.9,30.16,NNW,348,10.0,15.0,61,0.00,,,0.00,WUHU216DAVISVP2,2013-03-27 14:49:00,
2013-03-27 10:54:00,39.1,26.0,30.16,WNW,286,9.0,16.0,59,0.00,,,0.00,WUHU216DAVISVP2,2013-03-27 14:54:00,
2013-03-27 10:59:00,39.7,27.0,30.16,NW,304,11.0,15.0,60,0.00,,,0.00,WUHU216DAVISVP2,2013-03-27 14:59:00,
2013-03-27 11:04:00,40.1,27.0,30.15,WNW,300,5.0,15.0,59,0.00,,,0.00,WUHU216DAVISVP2,2013-03-27 15:04:00,
2013-03-27 11:09:00,40.4,26.8,30.15,NW,312,11.0,13.0,58,0.00,,,0.00,WUHU216DAVISVP2,2013-03-27 15:09:00,
2013-03-27 11:14:00,40.0,26.4,30.15,NW,324,13.0,15.0,58,0.00,,,0.00,WUHU216DAVISVP2,2013-03-27 15:14:00,
2013-03-27 11:19:00,40.5,26.4,30.15,NW,322,11.0,15.0,57,0.00,,,0.00,WUHU216DAVISVP2,2013-03-27 15:19:00,
2013-03-27 11:24:00,40.4,26.0,30.16,West,281,9.0,16.0,56,0.00,,,0.00,WUHU216DAVISVP2,2013-03-27 15:24:00,
2013-03-27 11:29:00,40.3,26.7,30.15,NW,317,6.0,16.0,58,0.00,,,0.00,WUHU216DAVISVP2,2013-03-27 15:29:00,
2013-03-27 11:34:00,40.5,26.5,30.16,WNW,299,8.0,21.0,57,0.00,,,0.00,WUHU216DAVISVP2,2013-03-27 15:34:00,
2013-03-27 11:40:00,40.8,27.2,30.16,North,355,9.0,21.0,58,0.00,,,0.00,WUHU216DAVISVP2,2013-03-27 15:40:00,
2013-03-27 11:45:00,41.0,27.3,30.16,WNW,302,11.0,19.0,58,0.00,,,0.00,WUHU216DAVISVP2,2013-03-27 15:45:00,
2013-03-27 11:50:00,40.8,25.9,30.16,West,281,8.0,19.0,55,0.00,,,0.00,WUHU216DAVISVP2,2013-03-27 15:50:00,
2013-03-27 11:55:00,41.2,26.7,30.16,North,351,6.0,18.0,56,0.00,,,0.00,WUHU216DAVISVP2,2013-03-27 15:55:00,
2013-03-27 12:00:00,41.5,26.5,30.16,WNW,298,6.0,22.0,55,0.00,,,0.00,WUHU216DAVISVP2,2013-03-27 16:00:00,
2013-03-27 12:05:00,41.8,26.8,30.16,WNW,291,5.0,22.0,55,0.00,,,0.00,WUHU216DAVISVP2,2013-03-27 16:05:00,
2013-03-27 12:10:00,41.6,25.7,30.15,NW,319,7.0,16.0,53,0.00,,,0.00,WUHU216DAVISVP2,2013-03-27 16:10:00,
2013-03-27 12:15:00,42.0,26.1,30.16,NNW,347,8.0,16.0,53,0.00,,,0.00,WUHU216DAVISVP2,2013-03-27 16:15:00,
2013-03-27 12:20:00,42.2,25.8,30.16,NW,309,6.0,16.0,52,0.00,,,0.00,WUHU216DAVISVP2,2013-03-27 16:20:00,
2013-03-27 12:26:00,41.9,25.0,30.15,NW,313,10.0,15.0,51,0.00,,,0.00,WUHU216DAVISVP2,2013-03-27 16:26:00,
2013-03-27 12:31:00,42.3,25.9,30.15,WNW,292,5.0,16.0,52,0.00,,,0.00,WUHU216DAVISVP2,2013-03-27 16:31:00,
2013-03-27 12:36:00,42.8,25.9,30.16,NNW,335,6.0,16.0,51,0.00,,,0.00,WUHU216DAVISVP2,2013-03-27 16:36:00,
2013-03-27 12:41:00,42.8,25.9,30.15,NNW,340,2.0,18.0,51,0.00,,,0.00,WUHU216DAVISVP2,2013-03-27 16:41:00,
2013-03-27 12:46:00,43.2,25.3,30.16,North,5,15.0,18.0,49,0.00,,,0.00,WUHU216DAVISVP2,2013-03-27 16:46:00,
2013-03-27 12:51:00,42.4,24.5,30.16,NW,324,10.0,16.0,49,0.00,,,0.00,WUHU216DAVISVP2,2013-03-27 16:51:00,
2013-03-27 12:56:00,42.9,25.0,30.15,NW,308,8.0,15.0,49,0.00,,,0.00,WUHU216DAVISVP2,2013-03-27 16:56:00,
2013-03-27 13:01:00,42.7,24.8,30.15,WNW,294,9.0,23.0,49,0.00,,,0.00,WUHU216DAVISVP2,2013-03-27 17:01:00,
2013-03-27 13:07:00,42.6,24.7,30.15,NNW,329,10.0,23.0,49,0.00,,,0.00,WUHU216DAVISVP2,2013-03-27 17:07:00,
2013-03-27 13:12:00,42.4,25.0,30.16,WNW,300,6.0,21.0,50,0.00,,,0.00,WUHU216DAVISVP2,2013-03-27 17:12:00,
2013-03-27 13:17:00,43.4,25.9,30.15,NW,304,11.0,18.0,50,0.00,,,0.00,WUHU216DAVISVP2,2013-03-27 17:17:00,
2013-03-27 13:22:00,42.8,24.9,30.15,WNW,293,7.0,15.0,49,0.00,,,0.00,WUHU216DAVISVP2,2013-03-27 17:22:00,
2013-03-27 13:27:00,42.9,25.0,30.15,NNW,347,14.0,15.0,49,0.00,,,0.00,WUHU216DAVISVP2,2013-03-27 17:27:00,
2013-03-27 13:32:00,43.0,25.6,30.15,NW,313,5.0,15.0,50,0.00,,,0.00,WUHU216DAVISVP2,2013-03-27 17:32:00,
2013-03-27 13:37:00,43.4,26.0,30.15,NW,319,5.0,13.0,50,0.00,,,0.00,WUHU216DAVISVP2,2013-03-27 17:37:00,
2013-03-27 13:42:00,43.6,25.6,30.15,WNW,292,5.0,13.0,49,0.00,,,0.00,WUHU216DAVISVP2,2013-03-27 17:42:00,
2013-03-27 13:47:00,43.6,26.1,30.14,West,277,12.0,16.0,50,0.00,,,0.00,WUHU216DAVISVP2,2013-03-27 17:47:00,
2013-03-27 13:48:00,43.4,26.0,30.14,North,351,5.0,16.0,50,0.00,,,0.00,WUHU216DAVISVP2,2013-03-27 17:48:00,
2013-03-27 13:52:00,43.2,25.3,30.15,NNW,338,8.0,20.0,49,0.00,,,0.00,WUHU216DAVISVP2,2013-03-27 17:52:00,
2013-03-27 13:53:00,43.1,25.2,30.15,WNW,300,7.0,20.0,49,0.00,,,0.00,WUHU216DAVISVP2,2013-03-27 17:53:00,
2013-03-27 13:57:00,43.3,26.3,30.15,NNW,328,8.0,20.0,51,0.00,,,0.00,WUHU216DAVISVP2,2013-03-27 17:57:00,
2013-03-27 14:02:00,43.4,26.0,30.14,NW,321,6.0,14.0,50,0.00,,,0.00,WUHU216DAVISVP2,2013-03-27 18:02:00,
2013-03-27 14:07:00,43.4,25.9,30.14,NNW,336,8.0,20.0,50,0.00,,,0.00,WUHU216DAVISVP2,2013-03-27 18:07:00,
2013-03-27 14:12:00,43.4,26.0,30.14,North,355,9.0,13.0,50,0.00,,,0.00,WUHU216DAVISVP2,2013-03-27 18:12:00,
2013-03-27 14:17:00,43.7,25.7,30.14,North,355,12.0,12.0,49,0.00,,,0.00,WUHU216DAVISVP2,2013-03-27 18:17:00,
2013-03-27 14:23:00,43.8,26.3,30.14,WNW,289,4.0,14.0,50,0.00,,,0.00,WUHU216DAVISVP2,2013-03-27 18:23:00,
2013-03-27 14:28:00,43.9,26.4,30.14,NNW,346,8.0,13.0,50,0.00,,,0.00,WUHU216DAVISVP2,2013-03-27 18:28:00,
2013-03-27 14:33:00,43.8,25.8,30.14,NNE,15,12.0,13.0,49,0.00,,,0.00,WUHU216DAVISVP2,2013-03-27 18:33:00,
2013-03-27 14:38:00,43.3,25.4,30.14,North,355,7.0,15.0,49,0.00,,,0.00,WUHU216DAVISVP2,2013-03-27 18:38:00,
2013-03-27 14:43:00,43.4,25.9,30.14,NW,308,7.0,15.0,50,0.00,,,0.00,WUHU216DAVISVP2,2013-03-27 18:43:00,
2013-03-27 14:48:00,43.4,25.4,30.14,NW,323,4.0,15.0,49,0.00,,,0.00,WUHU216DAVISVP2,2013-03-27 18:48:00,
2013-03-27 14:53:00,43.2,25.3,30.13,NNW,335,9.0,13.0,49,0.00,,,0.00,WUHU216DAVISVP2,2013-03-27 18:53:00,
2013-03-27 14:58:00,43.2,25.3,30.13,NNW,335,9.0,13.0,49,0.00,,,0.00,WUHU216DAVISVP2,2013-03-27 18:58:00,
2013-03-27 15:03:00,43.2,25.8,30.14,West,271,12.0,15.0,50,0.00,,,0.00,WUHU216DAVISVP2,2013-03-27 19:03:00,
2013-03-27 15:05:00,43.2,25.8,30.13,WNW,296,6.0,13.0,50,0.00,,,0.00,WUHU216DAVISVP2,2013-03-27 19:05:00,
2013-03-27 15:08:00,43.2,25.8,30.13,WNW,296,6.0,13.0,50,0.00,,,0.00,WUHU216DAVISVP2,2013-03-27 19:08:00,
2013-03-27 15:13:00,43.2,25.8,30.13,WNW,296,6.0,13.0,50,0.00,,,0.00,WUHU216DAVISVP2,2013-03-27 19:13:00,
2013-03-27 15:19:00,43.2,26.3,30.14,NW,306,5.0,13.0,51,0.00,,,0.00,WUHU216DAVISVP2,2013-03-27 19:19:00,
2013-03-27 15:24:00,43.6,27.1,30.13,WNW,302,6.0,13.0,52,0.00,,,0.00,WUHU216DAVISVP2,2013-03-27 19:24:00,
2013-03-27 15:29:00,43.7,26.7,30.14,NNW,329,10.0,14.0,51,0.00,,,0.00,WUHU216DAVISVP2,2013-03-27 19:29:00,
2013-03-27 15:34:00,43.7,26.3,30.13,WNW,293,8.0,14.0,50,0.00,,,0.00,WUHU216DAVISVP2,2013-03-27 19:34:00,
2013-03-27 15:39:00,43.6,26.1,30.13,NNW,343,6.0,15.0,50,0.00,,,0.00,WUHU216DAVISVP2,2013-03-27 19:39:00,
2013-03-27 15:44:00,43.7,26.7,30.13,WNW,302,8.0,15.0,51,0.00,,,0.00,WUHU216DAVISVP2,2013-03-27 19:44:00,
2013-03-27 15:49:00,43.6,25.6,30.13,NNW,338,6.0,14.0,49,0.00,,,0.00,WUHU216DAVISVP2,2013-03-27 19:49:00,
2013-03-27 15:54:00,43.7,26.7,30.13,NW,321,8.0,14.0,51,0.00,,,0.00,WUHU216DAVISVP2,2013-03-27 19:54:00,
2013-03-27 15:59:00,43.9,26.4,30.13,North,9,9.0,11.0,50,0.00,,,0.00,WUHU216DAVISVP2,2013-03-27 19:59:00,
2013-03-27 16:04:00,44.1,26.6,30.13,WNW,296,6.0,14.0,50,0.00,,,0.00,WUHU216DAVISVP2,2013-03-27 20:04:00,
2013-03-27 16:09:00,44.2,26.2,30.13,North,350,5.0,14.0,49,0.00,,,0.00,WUHU216DAVISVP2,2013-03-27 20:09:00,
2013-03-27 16:14:00,44.1,26.1,30.13,NW,304,9.0,12.0,49,0.00,,,0.00,WUHU216DAVISVP2,2013-03-27 20:14:00,
2013-03-27 16:20:00,43.9,26.0,30.13,West,276,6.0,13.0,49,0.00,,,0.00,WUHU216DAVISVP2,2013-03-27 20:20:00,
2013-03-27 16:25:00,44.0,26.0,30.13,NW,314,4.0,15.0,49,0.00,,,0.00,WUHU216DAVISVP2,2013-03-27 20:25:00,
2013-03-27 16:30:00,44.0,26.0,30.13,NW,312,7.0,15.0,49,0.00,,,0.00,WUHU216DAVISVP2,2013-03-27 20:30:00,
2013-03-27 16:35:00,44.2,26.2,30.12,NW,326,7.0,14.0,49,0.00,,,0.00,WUHU216DAVISVP2,2013-03-27 20:35:00,
2013-03-27 16:40:00,44.5,26.5,30.13,WNW,302,8.0,13.0,49,0.00,,,0.00,WUHU216DAVISVP2,2013-03-27 20:40:00,
2013-03-27 16:45:00,44.5,25.9,30.13,NNW,328,8.0,16.0,48,0.00,,,0.00,WUHU216DAVISVP2,2013-03-27 20:45:00,
2013-03-27 16:50:00,44.5,25.4,30.13,WNW,291,8.0,16.0,47,0.00,,,0.00,WUHU216DAVISVP2,2013-03-27 20:50:00,
2013-03-27 16:55:00,44.3,25.8,30.13,NW,311,6.0,15.0,48,0.00,,,0.00,WUHU216DAVISVP2,2013-03-27 20:55:00,
2013-03-27 17:00:00,44.0,25.5,30.13,NW,317,6.0,14.0,48,0.00,,,0.00,WUHU216DAVISVP2,2013-03-27 21:00:00,
2013-03-27 17:06:00,44.0,25.5,30.13,WNW,298,8.0,16.0,48,0.00,,,0.00,WUHU216DAVISVP2,2013-03-27 21:06:00,
2013-03-27 17:11:00,44.0,25.5,30.13,NW,314,6.0,16.0,48,0.00,,,0.00,WUHU216DAVISVP2,2013-03-27 21:11:00,
2013-03-27 17:16:00,44.2,26.2,30.13,WNW,292,8.0,11.0,49,0.00,,,0.00,WUHU216DAVISVP2,2013-03-27 21:16:00,
2013-03-27 17:21:00,44.2,26.2,30.13,NNW,346,10.0,11.0,49,0.00,,,0.00,WUHU216DAVISVP2,2013-03-27 21:21:00,
2013-03-27 17:26:00,44.2,26.2,30.13,NW,309,7.0,15.0,49,0.00,,,0.00,WUHU216DAVISVP2,2013-03-27 21:26:00,
2013-03-27 17:29:00,44.2,25.7,30.13,NW,313,8.0,15.0,48,0.00,,,0.00,WUHU216DAVISVP2,2013-03-27 21:29:00,
2013-03-27 17:31:00,44.2,25.7,30.13,WNW,296,9.0,15.0,48,0.00,,,0.00,WUHU216DAVISVP2,2013-03-27 21:31:00,
2013-03-27 17:36:00,44.2,25.7,30.13,NW,313,8.0,15.0,48,0.00,,,0.00,WUHU216DAVISVP2,2013-03-27 21:36:00,
2013-03-27 17:42:00,44.3,26.3,30.13,WNW,286,6.0,14.0,49,0.00,,,0.00,WUHU216DAVISVP2,2013-03-27 21:42:00,
2013-03-27 17:47:00,44.4,26.4,30.13,WNW,299,7.0,14.0,49,0.00,,,0.00,WUHU216DAVISVP2,2013-03-27 21:47:00,
2013-03-27 17:52:00,44.4,25.9,30.13,WNW,290,7.0,14.0,48,0.00,,,0.00,WUHU216DAVISVP2,2013-03-27 21:52:00,
2013-03-27 17:57:00,44.2,25.7,30.13,NW,315,11.0,14.0,48,0.00,,,0.00,WUHU216DAVISVP2,2013-03-27 21:57:00,
2013-03-27 18:02:00,44.0,26.0,30.13,NW,304,11.0,15.0,49,0.00,,,0.00,WUHU216DAVISVP2,2013-03-27 22:02:00,
2013-03-27 18:07:00,44.0,26.0,30.13,WNW,292,4.0,15.0,49,0.00,,,0.00,WUHU216DAVISVP2,2013-03-27 22:07:00,
2013-03-27 18:12:00,43.9,25.9,30.13,WNW,296,9.0,15.0,49,0.00,,,0.00,WUHU216DAVISVP2,2013-03-27 22:12:00,
2013-03-27 18:17:00,43.9,26.0,30.13,West,278,8.0,15.0,49,0.00,,,0.00,WUHU216DAVISVP2,2013-03-27 22:17:00,
2013-03-27 18:18:00,43.9,26.0,30.13,WNW,295,9.0,15.0,49,0.00,,,0.00,WUHU216DAVISVP2,2013-03-27 22:18:00,
2013-03-27 18:23:00,44.0,26.0,30.13,WNW,295,9.0,14.0,49,0.00,,,0.00,WUHU216DAVISVP2,2013-03-27 22:23:00,
2013-03-27 18:28:00,43.9,26.0,30.13,WNW,295,9.0,15.0,49,0.00,,,0.00,WUHU216DAVISVP2,2013-03-27 22:28:00,
2013-03-27 18:33:00,43.6,26.1,30.13,WNW,299,10.0,19.0,50,0.00,,,0.00,WUHU216DAVISVP2,2013-03-27 22:33:00,
2013-03-27 18:38:00,43.4,25.9,30.13,WNW,302,4.0,19.0,50,0.00,,,0.00,WUHU216DAVISVP2,2013-03-27 22:38:00,
2013-03-27 18:43:00,43.3,25.9,30.13,NW,313,8.0,18.0,50,0.00,,,0.00,WUHU216DAVISVP2,2013-03-27 22:43:00,
2013-03-27 18:48:00,43.3,26.3,30.13,NW,310,5.0,15.0,51,0.00,,,0.00,WUHU216DAVISVP2,2013-03-27 22:48:00,
2013-03-27 18:50:00,43.3,26.3,30.13,WNW,295,12.0,12.0,51,0.00,,,0.00,WUHU216DAVISVP2,2013-03-27 22:50:00,
2013-03-27 18:53:00,43.3,26.3,30.13,WNW,295,12.0,12.0,51,0.00,,,0.00,WUHU216DAVISVP2,2013-03-27 22:53:00,
2013-03-27 18:58:00,43.3,26.3,30.13,WNW,295,12.0,12.0,51,0.00,,,0.00,WUHU216DAVISVP2,2013-03-27 22:58:00,
2013-03-27 19:03:00,42.9,26.0,30.14,WNW,302,4.0,16.0,51,0.00,,,0.00,WUHU216DAVISVP2,2013-03-27 23:03:00,
2013-03-27 19:08:00,42.9,26.0,30.14,WNW,302,4.0,16.0,51,0.00,,,0.00,WUHU216DAVISVP2,2013-03-27 23:08:00,
2013-03-27 19:14:00,42.6,26.2,30.14,NNW,330,5.0,18.0,52,0.00,,,0.00,WUHU216DAVISVP2,2013-03-27 23:14:00,
2013-03-27 19:19:00,42.5,26.1,30.14,WNW,301,7.0,15.0,52,0.00,,,0.00,WUHU216DAVISVP2,2013-03-27 23:19:00,
2013-03-27 19:24:00,42.4,26.5,30.14,NNW,334,11.0,15.0,53,0.00,,,0.00,WUHU216DAVISVP2,2013-03-27 23:24:00,
2013-03-27 19:29:00,42.3,26.4,30.14,WNW,296,8.0,15.0,53,0.00,,,0.00,WUHU216DAVISVP2,2013-03-27 23:29:00,
2013-03-27 19:34:00,42.2,26.3,30.14,WNW,290,8.0,15.0,53,0.00,,,0.00,WUHU216DAVISVP2,2013-03-27 23:34:00,
2013-03-27 19:39:00,41.9,26.4,30.14,WNW,298,10.0,13.0,54,0.00,,,0.00,WUHU216DAVISVP2,2013-03-27 23:39:00,
2013-03-27 19:44:00,41.9,26.5,30.15,NW,321,6.0,16.0,54,0.00,,,0.00,WUHU216DAVISVP2,2013-03-27 23:44:00,
2013-03-27 19:49:00,41.7,26.7,30.14,WNW,290,7.0,16.0,55,0.00,,,0.00,WUHU216DAVISVP2,2013-03-27 23:49:00,
2013-03-27 19:55:00,41.6,26.6,30.15,NW,309,5.0,13.0,55,0.00,,,0.00,WUHU216DAVISVP2,2013-03-27 23:55:00,
2013-03-27 20:00:00,41.5,26.5,30.15,NNW,333,5.0,12.0,55,0.00,,,0.00,WUHU216DAVISVP2,2013-03-28 00:00:00,
2013-03-27 20:05:00,41.3,26.8,30.15,NW,324,7.0,12.0,56,0.00,,,0.00,WUHU216DAVISVP2,2013-03-28 00:05:00,
2013-03-27 20:10:00,41.2,26.7,30.15,NW,314,6.0,11.0,56,0.00,,,0.00,WUHU216DAVISVP2,2013-03-28 00:10:00,
2013-03-27 20:15:00,41.1,26.6,30.15,NW,313,8.0,12.0,56,0.00,,,0.00,WUHU216DAVISVP2,2013-03-28 00:15:00,
2013-03-27 20:20:00,41.1,26.6,30.15,NW,319,9.0,14.0,56,0.00,,,0.00,WUHU216DAVISVP2,2013-03-28 00:20:00,
2013-03-27 20:25:00,41.0,26.5,30.15,NW,314,7.0,14.0,56,0.00,,,0.00,WUHU216DAVISVP2,2013-03-28 00:25:00,
2013-03-27 20:30:00,40.9,26.8,30.15,WNW,297,5.0,13.0,57,0.00,,,0.00,WUHU216DAVISVP2,2013-03-28 00:30:00,
2013-03-27 20:35:00,40.6,26.6,30.15,WNW,294,6.0,10.0,57,0.00,,,0.00,WUHU216DAVISVP2,2013-03-28 00:35:00,
2013-03-27 20:41:00,40.5,26.9,30.15,NW,315,6.0,9.0,58,0.00,,,0.00,WUHU216DAVISVP2,2013-03-28 00:41:00,
2013-03-27 20:46:00,40.3,26.7,30.15,West,278,9.0,9.0,58,0.00,,,0.00,WUHU216DAVISVP2,2013-03-28 00:46:00,
2013-03-27 20:51:00,40.2,26.6,30.15,WNW,299,4.0,11.0,58,0.00,,,0.00,WUHU216DAVISVP2,2013-03-28 00:51:00,
2013-03-27 20:56:00,39.7,26.5,30.16,NW,305,5.0,11.0,59,0.00,,,0.00,WUHU216DAVISVP2,2013-03-28 00:56:00,
2013-03-27 21:01:00,39.6,26.4,30.16,West,273,13.0,13.0,59,0.00,,,0.00,WUHU216DAVISVP2,2013-03-28 01:01:00,
2013-03-27 21:06:00,39.5,26.8,30.16,WNW,294,10.0,13.0,60,0.00,,,0.00,WUHU216DAVISVP2,2013-03-28 01:06:00,
2013-03-27 21:11:00,39.4,26.7,30.16,WNW,288,5.0,13.0,60,0.00,,,0.00,WUHU216DAVISVP2,2013-03-28 01:11:00,
2013-03-27 21:16:00,39.1,26.4,30.16,WNW,293,6.0,12.0,60,0.00,,,0.00,WUHU216DAVISVP2,2013-03-28 01:16:00,
2013-03-27 21:21:00,39.0,26.3,30.16,WNW,293,7.0,13.0,60,0.00,,,0.00,WUHU216DAVISVP2,2013-03-28 01:21:00,
2013-03-27 21:26:00,38.8,26.5,30.17,WNW,293,7.0,13.0,61,0.00,,,0.00,WUHU216DAVISVP2,2013-03-28 01:26:00,
2013-03-27 21:31:00,38.6,26.3,30.16,WNW,293,7.0,14.0,61,0.00,,,0.00,WUHU216DAVISVP2,2013-03-28 01:31:00,
2013-03-27 21:36:00,38.4,26.1,30.17,WNW,293,8.0,14.0,61,0.00,,,0.00,WUHU216DAVISVP2,2013-03-28 01:36:00,
2013-03-27 21:41:00,38.2,25.9,30.17,NW,315,6.0,12.0,61,0.00,,,0.00,WUHU216DAVISVP2,2013-03-28 01:41:00,
2013-03-27 21:46:00,37.9,26.0,30.17,NW,315,5.0,12.0,62,0.00,,,0.00,WUHU216DAVISVP2,2013-03-28 01:46:00,
2013-03-27 21:51:00,37.8,25.9,30.17,WNW,293,6.0,10.0,62,0.00,,,0.00,WUHU216DAVISVP2,2013-03-28 01:51:00,
2013-03-27 21:56:00,37.7,25.8,30.17,NW,315,6.0,10.0,62,0.00,,,0.00,WUHU216DAVISVP2,2013-03-28 01:56:00,
2013-03-27 22:01:00,37.5,25.7,30.17,WNW,293,7.0,10.0,62,0.00,,,0.00,WUHU216DAVISVP2,2013-03-28 02:01:00,
2013-03-27 22:06:00,37.4,25.6,30.17,WNW,293,9.0,14.0,62,0.00,,,0.00,WUHU216DAVISVP2,2013-03-28 02:06:00,
2013-03-27 22:11:00,37.3,25.5,30.17,NW,315,5.0,14.0,62,0.00,,,0.00,WUHU216DAVISVP2,2013-03-28 02:11:00,
2013-03-27 22:16:00,37.1,25.3,30.17,WNW,293,7.0,14.0,62,0.00,,,0.00,WUHU216DAVISVP2,2013-03-28 02:16:00,
2013-03-27 22:21:00,37.0,25.2,30.17,WNW,293,7.0,14.0,62,0.00,,,0.00,WUHU216DAVISVP2,2013-03-28 02:21:00,
2013-03-27 22:26:00,37.0,25.2,30.18,NW,315,5.0,14.0,62,0.00,,,0.00,WUHU216DAVISVP2,2013-03-28 02:26:00,
2013-03-27 22:31:00,36.8,25.0,30.18,NNW,338,6.0,11.0,62,0.00,,,0.00,WUHU216DAVISVP2,2013-03-28 02:31:00,
2013-03-27 22:36:00,36.6,24.8,30.18,NW,315,5.0,10.0,62,0.00,,,0.00,WUHU216DAVISVP2,2013-03-28 02:36:00,
2013-03-27 22:41:00,36.5,25.1,30.18,NW,315,6.0,10.0,63,0.00,,,0.00,WUHU216DAVISVP2,2013-03-28 02:41:00,
2013-03-27 22:46:00,36.3,24.9,30.18,WNW,293,5.0,10.0,63,0.00,,,0.00,WUHU216DAVISVP2,2013-03-28 02:46:00,
2013-03-27 22:51:00,36.0,25.0,30.18,NW,315,5.0,10.0,64,0.00,,,0.00,WUHU216DAVISVP2,2013-03-28 02:51:00,
2013-03-27 22:56:00,35.9,24.9,30.18,NW,315,8.0,12.0,64,0.00,,,0.00,WUHU216DAVISVP2,2013-03-28 02:56:00,
2013-03-27 23:01:00,36.0,24.6,30.18,NW,315,5.0,12.0,63,0.00,,,0.00,WUHU216DAVISVP2,2013-03-28 03:01:00,
2013-03-27 23:06:00,35.8,24.4,30.18,NW,315,7.0,12.0,63,0.00,,,0.00,WUHU216DAVISVP2,2013-03-28 03:06:00,
2013-03-27 23:11:00,35.7,24.3,30.19,NW,315,9.0,13.0,63,0.00,,,0.00,WUHU216DAVISVP2,2013-03-28 03:11:00,
2013-03-27 23:16:00,35.7,24.3,30.18,WNW,293,5.0,13.0,63,0.00,,,0.00,WUHU216DAVISVP2,2013-03-28 03:16:00,
2013-03-27 23:21:00,35.6,24.6,30.18,WNW,293,4.0,13.0,64,0.00,,,0.00,WUHU216DAVISVP2,2013-03-28 03:21:00,
2013-03-27 23:26:00,35.4,24.0,30.19,WNW,293,7.0,11.0,63,0.00,,,0.00,WUHU216DAVISVP2,2013-03-28 03:26:00,
2013-03-27 23:31:00,35.4,24.0,30.19,WNW,293,6.0,12.0,63,0.00,,,0.00,WUHU216DAVISVP2,2013-03-28 03:31:00,
2013-03-27 23:36:00,35.2,24.2,30.19,NW,315,4.0,12.0,64,0.00,,,0.00,WUHU216DAVISVP2,2013-03-28 03:36:00,
2013-03-27 23:41:00,35.2,24.2,30.19,NW,315,7.0,10.0,64,0.00,,,0.00,WUHU216DAVISVP2,2013-03-28 03:41:00,
2013-03-27 23:46:00,35.1,24.1,30.19,WNW,293,6.0,10.0,64,0.00,,,0.00,WUHU216DAVISVP2,2013-03-28 03:46:00,
2013-03-27 23:51:00,34.9,23.9,30.19,WNW,293,5.0,9.0,64,0.00,,,0.00,WUHU216DAVISVP2,2013-03-28 03:51:00,
2013-03-27 23:56:00,34.8,23.9,30.19,NW,315,8.0,10.0,64,0.00,,,0.00,WUHU216DAVISVP2,2013-03-28 03:56:00,